Wetbulb
55.08 54.60 54.73 55.02 54.83 54.74 54.29 54.23 54.39 54.33 54.38 54.23 54.27 54.67 55.01 55.38 54.91 55.92 52.11 57.22 58.88 60.64 59.76 56.56 55.77 54.62 55.05 54.27 55.76 55.67 49.57 45.96 47.87 48.45 50.24 54.23 52.39 56.42 57.80 55.55 56.75 58.48 59.57 61.76 60.91
56.03 55.36 54.51 54.51 54.65 54.51 54.11 54.15 54.15 54.11 54.03 54.31 54.27 54.54 54.72 54.83 54.77 52.63 61.11 60.76 60.95 61.82 55.86 54.06 52.41 53.30 52.26 52.63 53.72 51.84 48.60 48.48 51.35 51.81 50.92 52.47 52.46 53.89 52.87 53.37 54.50 56.04 58.91 61.00 61.23
55.50 55.27 54.71 54.49 54.34 54.43 54.11 53.84 53.99 53.76 53.79 54.33 54.66 54.69 54.75 55.26 54.02 53.38 63.37 62.27 61.42 62.05 57.11 55.51 54.33 53.39 51.25 52.75 52.26 51.88 48.59 51.91 51.72 52.59 52.94 51.91 51.80 52.97 51.61 49.93 53.38 54.39 57.26 59.82 60.38
55.81 55.20 54.60 54.09 53.98 53.89 53.72 53.70 53.56 53.70 53.97 54.44 54.91 54.73 54.47 55.99 48.44 61.33 61.58 61.64 62.67 58.06 58.28 55.46 53.28 50.44 50.05 49.72 52.60 49.15 51.72 52.08 52.36 53.09 52.09 51.22 53.07 51.48 52.08 52.53 54.37 54.86 56.50 57.18 58.63
55.21 55.41 55.07 54.41 54.20 53.87 53.49 53.47 53.36 53.35 53.64 53.81 54.39 54.41 54.69 52.62 51.64 64.85 63.28 61.92 59.05 59.02 54.16 53.44 51.44 51.45 49.39 50.96 51.36 50.01 51.11 52.02 52.51 52.43 52.01 52.42 50.80 50.96 51.58 54.13 55.54 55.81 55.48 55.86 57.25
55.25 55.15 55.03 54.93 54.70 54.51 53.87 53.85 53.38 53.14 53.23 54.09 54.26 53.99 53.99 47.76 55.20 62.64 58.38 58.36 57.01 58.18 54.67 53.95 53.24 54.01 51.47 51.10 50.63 51.87 51.12 51.27 51.58 51.41 51.77 50.21 50.58 51.49 52.58 54.81 54.58 55.24 55.29 56.18 57.70
55.12 55.18 54.76 54.83 54.74 54.66 54.81 54.37 54.23 53.18 53.80 54.64 54.67 55.61 53.63 51.25 54.69 61.95 59.20 58.77 60.49 57.97 52.17 55.49 56.09 52.94 52.87 50.39 52.45 51.29 48.60 50.24 50.73 51.25 50.73 52.06 48.79 49.40 53.24 54.59 54.04 54.54 55.34 56.30 57.16
54.64 54.47 54.41 54.37 54.60 54.67 54.92 54.58 54.24 54.12 54.52 55.04 54.79 57.25 53.16 55.64 55.54 59.20 59.64 57.60 56.92 56.09 56.92 57.25 56.45 53.81 52.45 53.23 50.41 48.58 48.97 45.55 50.06 50.90 51.20 50.66 45.72 51.20 54.09 53.50 53.10 53.84 54.52 55.24 56.65
54.05 53.77 53.89 53.88 54.09 54.45 54.26 53.73 54.12 54.36 55.11 55.72 55.85 56.65 53.97 56.09 51.17 56.70 60.47 54.19 54.21 56.87 57.37 56.11 55.05 51.92 51.70 48.20 46.90 47.87 43.84 45.85 47.26 51.01 49.50 48.65 46.74 50.89 53.33 53.18 52.96 53.89 54.36 54.87 55.79
53.60 53.26 53.27 53.58 53.59 53.87 53.89 53.87 55.49 54.29 55.88 59.01 58.26 53.57 56.72 52.15 53.18 53.87 60.94 57.08 54.11 54.28 53.32 52.81 51.85 49.32 48.97 47.21 41.59 44.33 44.98 45.95 45.88 49.09 48.85 47.65 47.16 50.12 52.51 52.71 53.01 54.07 54.67 55.14 55.54
53.41 52.94 52.86 53.19 53.33 53.46 52.62 57.10 56.04 54.85 57.05 55.33 55.24 54.57 52.92 56.42 54.80 54.05 57.82 55.68 54.36 52.12 48.47 51.64 47.88 45.74 47.53 48.81 48.06 47.13 45.60 45.18 47.60 49.18 47.65 48.03 48.49 50.21 52.31 52.64 52.58 53.45 54.22 55.10 55.66
52.97 52.86 52.70 52.69 52.86 52.88 54.13 52.82 55.33 56.83 50.67 57.00 56.11 55.45 55.59 56.30 50.92 52.85 57.75 51.70 51.21 47.95 50.03 48.81 45.64 49.33 49.99 49.28 47.42 46.62 44.81 45.13 47.52 49.35 48.82 48.19 47.86 50.48 51.75 52.29 53.36 53.53 54.08 54.89 55.83
53.15 52.69 52.38 52.46 52.46 52.37 55.25 53.88 59.30 58.01 49.70 51.21 53.10 52.91 54.15 55.51 51.74 51.15 54.76 52.52 49.93 48.12 48.88 46.81 48.67 49.71 48.09 47.40 46.07 46.36 45.00 45.51 45.43 48.15 49.35 48.04 46.43 48.48 51.18 52.45 53.18 54.02 54.77 55.22 55.58
52.92 52.24 52.20 52.22 50.39 58.81 55.09 57.55 60.22 58.92 46.68 47.92 50.03 52.20 53.36 54.01 50.25 56.03 55.17 52.82 50.57 47.93 49.26 48.84 50.72 48.54 47.28 45.47 46.73 43.93 47.99 46.88 45.45 44.78 41.50 48.45 40.70 47.70 50.14 50.89 52.22 53.36 54.26 54.87 55.48
52.45 52.16 52.04 51.03 55.61 55.08 57.09 60.59 60.51 58.01 38.10 50.10 50.31 55.98 54.09 50.99 51.26 51.73 56.13 53.08 48.82 48.48 47.91 46.54 47.51 46.38 45.44 46.37 48.04 45.17 48.24 46.84 46.51 45.17 44.86 44.85 42.83 46.47 50.60 49.44 51.52 53.26 54.05 55.18 56.15
52.01 51.93 51.57 52.70 55.54 58.43 59.28 59.86 58.69 46.82 37.21 46.65 50.24 49.43 48.19 49.56 48.74 51.35 52.01 53.27 51.39 47.62 49.01 47.64 50.73 48.44 48.22 49.34 48.30 49.19 46.94 47.24 47.16 45.75 40.19 44.98 44.60 44.96 47.80 50.10 51.95 53.85 54.93 55.58 55.88
51.70 51.24 52.27 57.69 55.18 57.77 59.39 56.44 46.94 40.75 48.66 45.21 46.31 48.40 48.07 47.16 47.62 48.50 47.45 46.60 44.15 42.45 41.93 45.08 46.80 49.19 49.92 46.44 49.15 48.25 45.61 39.78 38.90 39.76 39.03 47.09 44.76 46.97 51.07 52.29 52.68 53.10 54.20 55.89 56.09
50.23 49.62 54.47 58.03 59.58 58.07 56.61 50.83 40.01 44.80 45.40 48.68 47.88 47.30 44.80 46.83 46.57 46.41 44.97 43.51 47.43 46.30 43.00 41.34 40.11 46.68 49.37 47.28 45.23 46.39 45.31 38.82 32.75 35.64 39.74 46.41 41.58 46.75 52.93 53.36 53.56 53.41 54.29 55.06 54.96
48.52 59.27 59.77 59.91 60.90 60.05 54.40 43.66 44.70 45.37 47.81 45.82 46.52 44.14 44.15 46.18 46.14 46.52 45.34 44.69 46.52 47.48 41.54 40.68 41.85 49.13 49.37 49.74 48.39 45.43 42.66 47.15 41.41 43.29 40.11 42.59 46.40 50.67 52.64 52.64 52.64 52.67 53.74 53.57 54.38
55.03 58.61 56.99 61.05 62.61 58.41 51.47 41.79 47.30 49.10 48.76 47.76 41.37 45.00 41.55 43.82 43.57 44.27 44.24 47.46 46.31 48.59 48.81 43.88 38.94 46.68 48.57 50.06 50.34 47.10 48.35 39.38 41.27 33.94 33.50 39.60 42.31 43.84 48.06 50.03 51.51 51.75 52.43 53.47 54.03
56.63 55.39 58.31 61.96 61.19 54.59 47.29 47.57 47.93 50.38 50.15 46.38 44.08 42.52 43.11 42.36 43.82 42.41 42.54 47.06 48.01 47.73 49.09 46.91 42.91 42.26 45.85 44.77 43.49 44.02 42.27 43.30 42.88 41.33 35.21 34.80 39.41 49.07 48.56 50.08 51.01 51.39 51.68 51.81 52.59
56.98 52.70 59.01 60.69 51.62 53.38 49.85 48.73 44.07 48.59 50.11 48.32 48.51 46.82 43.34 43.83 43.11 41.90 43.03 44.77 48.91 48.69 44.03 45.87 42.40 38.89 41.96 47.68 48.79 46.93 44.22 43.52 37.00 37.68 40.36 38.97 39.62 51.44 50.50 51.59 51.53 51.49 51.43 52.55 53.44
53.45 53.94 59.97 58.71 48.68 49.26 49.48 47.81 48.56 47.44 47.74 47.47 46.44 47.09 47.48 44.56 40.45 43.81 44.20 48.14 48.46 46.68 43.70 46.59 40.76 36.87 39.58 44.80 47.30 43.47 44.74 44.74 43.62 42.86 38.18 35.29 39.55 49.62 50.59 49.81 50.52 50.14 51.12 51.31 51.77
53.31 49.77 52.72 56.89 54.44 49.64 47.16 46.64 45.97 48.91 48.01 48.32 47.68 48.25 45.53 42.39 44.81 42.92 43.20 45.76 47.19 46.02 45.25 45.11 42.16 37.14 34.86 39.33 41.00 38.53 41.91 43.26 42.03 38.09 38.61 39.30 40.83 45.07 46.54 47.90 49.13 50.26 50.18 51.16 52.33
53.82 49.36 49.60 48.50 48.37 48.06 47.26 46.01 43.93 43.47 47.45 47.99 45.82 44.73 43.52 40.31 42.43 41.82 43.77 44.62 44.15 46.38 44.56 43.66 37.41 39.89 40.53 40.55 41.24 41.43 40.81 41.58 38.94 40.46 36.44 40.49 40.70 43.24 47.12 48.48 48.80 49.64 50.58 50.47 50.93
49.77 48.86 51.00 49.46 47.18 46.56 41.71 45.15 43.15 44.02 44.36 44.26 43.47 44.67 43.44 41.60 42.75 41.33 41.64 41.94 41.84 44.78 42.79 44.42 36.56 40.42 38.01 41.05 40.50 38.82 41.44 41.92 41.97 41.66 40.62 41.70 41.52 47.81 48.99 48.50 48.24 48.70 48.32 48.65 50.10
54.90 54.00 50.60 43.48 46.68 45.64 47.10 44.81 43.52 44.67 46.16 46.19 45.29 43.74 43.29 43.61 46.23 47.30 47.32 46.85 45.38 41.93 40.27 39.94 37.89 37.49 34.91 39.83 39.60 35.43 40.04 42.29 42.45 43.49 42.65 38.52 43.34 46.79 46.62 47.56 48.57 48.85 49.39 49.16 49.74
MSLP
1017.58 1017.18 1016.88 1016.64 1016.42 1016.31 1016.17 1016.03 1015.89 1015.69 1015.56 1015.42 1015.27 1015.03 1014.71 1014.47 1014.01 1013.17 1010.81 1008.94 1009.16 1009.79 1009.95 1008.37 1008.01 1007.55 1007.09 1006.06 1005.49 1005.33 1004.06 1002.86 1001.93 1001.60 1001.33 1001.26 1001.42 1002.17 1002.17 1002.70 1002.44 1002.07 1001.83 1001.65 1002.58
1017.51 1017.12 1016.79 1016.51 1016.26 1016.02 1015.92 1015.81 1015.70 1015.60 1015.47 1015.32 1015.11 1014.84 1014.56 1014.43 1013.07 1010.38 1008.62 1009.13 1009.46 1009.84 1009.32 1007.68 1007.00 1006.74 1006.05 1005.36 1005.21 1004.65 1003.51 1002.26 1001.57 1001.30 1001.51 1001.88 1002.10 1002.26 1002.73 1003.02 1002.42 1002.43 1002.25 1002.28 1002.51
1017.53 1017.10 1016.71 1016.33 1016.03 1015.81 1015.65 1015.57 1015.47 1015.35 1015.25 1015.05 1014.84 1014.65 1014.50 1014.19 1011.43 1007.14 1007.76 1008.63 1009.38 1009.67 1008.44 1006.94 1006.19 1005.92 1005.23 1004.71 1004.44 1004.13 1003.06 1001.80 1001.64 1002.64 1002.62 1002.36 1002.82 1003.66 1003.40 1003.26 1002.40 1002.06 1001.78 1001.91 1002.20
1017.56 1017.09 1016.70 1016.32 1016.00 1015.73 1015.51 1015.41 1015.29 1015.15 1014.99 1014.85 1014.72 1014.66 1014.47 1013.30 1008.52 1007.09 1008.33 1008.79 1009.38 1008.99 1007.77 1006.74 1006.05 1005.43 1004.52 1003.80 1003.67 1003.58 1002.92 1002.58 1002.10 1002.52 1003.02 1002.82 1002.89 1002.86 1002.80 1002.88 1002.65 1002.88 1002.80 1002.58 1002.44
1017.51 1017.03 1016.60 1016.23 1015.87 1015.59 1015.41 1015.22 1015.14 1015.12 1015.02 1014.84 1014.59 1014.43 1014.03 1010.84 1007.30 1007.52 1008.53 1009.05 1008.91 1008.45 1007.10 1006.16 1005.43 1004.72 1003.90 1003.27 1003.43 1003.14 1002.89 1002.58 1002.65 1002.81 1003.02 1003.06 1002.94 1002.79 1002.56 1002.53 1002.74 1002.69 1003.05 1003.15 1003.06
1017.57 1017.05 1016.56 1016.09 1015.68 1015.40 1015.21 1015.09 1015.00 1014.92 1014.77 1014.55 1014.45 1014.51 1013.04 1008.92 1006.64 1007.45 1007.61 1008.25 1007.68 1007.37 1006.49 1005.74 1004.93 1004.47 1003.67 1003.13 1003.00 1003.00 1003.25 1002.53 1002.78 1002.70 1002.80 1002.87 1002.54 1002.41 1002.31 1002.46 1002.46 1002.33 1002.44 1002.38 1002.22
1017.44 1017.07 1016.62 1016.12 1015.66 1015.31 1015.05 1014.87 1014.75 1014.75 1014.62 1014.51 1014.45 1013.69 1010.82 1007.23 1006.64 1006.77 1007.16 1007.02 1006.60 1006.45 1005.75 1005.39 1004.92 1004.81 1004.18 1003.48 1003.30 1003.23 1003.21 1002.68 1002.36 1002.17 1002.18 1002.44 1001.92 1001.45 1001.64 1001.96 1001.96 1002.06 1002.05 1002.04 1001.97
1017.37 1016.82 1016.47 1016.13 1015.64 1015.18 1014.83 1014.60 1014.44 1014.32 1014.22 1014.04 1013.99 1012.53 1008.60 1006.38 1006.71 1006.67 1006.57 1006.35 1006.46 1006.23 1005.74 1005.62 1005.89 1005.00 1004.27 1003.60 1003.93 1003.44 1002.79 1001.67 1000.64 1000.97 1001.38 1002.02 1000.83 1000.29 1000.23 1001.39 1001.70 1001.96 1001.74 1001.81 1002.07
1017.32 1016.83 1016.20 1015.80 1015.48 1015.10 1014.67 1014.32 1014.12 1014.10 1014.01 1013.90 1013.32 1011.35 1007.27 1007.53 1006.96 1006.34 1006.23 1006.00 1006.36 1006.39 1006.28 1006.31 1005.94 1005.00 1004.49 1004.00 1003.14 1002.43 1001.34 1000.54 1000.01 1000.68 1001.30 1001.68 1000.61 1000.10 1000.98 1001.38 1001.55 1001.43 1001.48 1001.62 1001.84
1017.00 1016.60 1016.19 1015.60 1015.08 1014.77 1014.49 1013.98 1013.44 1013.92 1013.76 1012.69 1011.33 1010.03 1007.04 1005.58 1005.66 1005.96 1006.09 1005.77 1006.07 1006.21 1006.25 1006.34 1005.47 1004.58 1003.97 1003.00 1001.59 1000.74 1000.61 1000.48 999.77 1000.06 1001.39 1001.13 1000.73 1000.56 1000.50 1001.06 1001.20 1001.38 1001.46 1001.37 1001.47
1016.56 1016.20 1015.80 1015.33 1014.88 1014.47 1014.12 1013.26 1012.76 1011.75 1010.69 1007.89 1007.05 1006.14 1005.41 1005.33 1005.56 1005.50 1005.84 1006.02 1005.87 1005.85 1005.39 1005.23 1004.55 1003.20 1002.64 1002.18 1001.80 1001.24 1001.24 1000.46 1000.15 1000.29 1000.65 1000.84 1000.84 1000.45 1000.18 1000.22 1000.37 1000.63 1000.82 1001.03 1001.08
1016.13 1015.69 1015.24 1014.78 1014.38 1014.11 1013.57 1010.97 1008.40 1007.95 1007.38 1006.45 1006.21 1005.48 1005.18 1005.50 1005.02 1005.11 1005.70 1005.64 1005.37 1004.79 1004.84 1004.21 1003.44 1002.89 1002.44 1002.21 1002.27 1002.27 1001.96 1001.32 1000.99 1000.84 1001.04 1001.09 1000.56 1000.28 1000.04 999.93 1000.05 1000.16 1000.14 1000.24 1000.50
1015.45 1015.07 1014.59 1014.11 1013.68 1013.16 1010.89 1009.00 1008.21 1008.16 1007.18 1005.60 1005.48 1005.06 1004.87 1005.26 1004.60 1004.29 1005.24 1005.05 1004.54 1004.27 1003.59 1003.04 1002.15 1002.46 1002.71 1002.32 1002.65 1002.39 1002.05 1001.48 1001.12 1000.91 1000.97 1001.16 1000.28 1000.09 999.83 999.59 999.55 999.70 999.87 999.95 1000.10
1014.80 1014.30 1013.85 1013.38 1013.18 1008.95 1008.38 1007.90 1007.78 1008.13 1006.35 1005.37 1005.21 1005.08 1005.07 1004.78 1004.51 1003.79 1004.62 1004.64 1004.26 1003.66 1003.17 1002.47 1002.40 1002.28 1002.49 1002.52 1002.49 1001.82 1001.85 1001.76 1001.81 1001.63 1000.66 1000.33 998.80 998.35 998.26 998.19 998.23 998.59 999.11 999.68 999.87
1014.18 1013.46 1012.97 1013.05 1010.91 1007.91 1007.27 1007.10 1007.18 1007.69 1005.18 1004.12 1004.60 1005.09 1004.70 1004.58 1004.18 1004.18 1004.34 1004.40 1003.90 1003.47 1003.69 1002.37 1002.21 1002.43 1002.24 1002.02 1002.05 1001.94 1001.90 1001.92 1001.75 1001.52 1000.96 1000.18 999.12 997.87 997.48 997.31 997.38 997.89 998.66 999.11 999.45
1013.49 1012.78 1012.24 1011.82 1010.78 1007.90 1007.50 1007.52 1007.48 1006.18 1003.75 1003.50 1004.18 1004.34 1004.89 1004.98 1004.65 1004.68 1004.59 1004.86 1004.72 1004.31 1003.44 1003.17 1002.37 1002.62 1002.32 1001.98 1002.43 1002.33 1002.27 1002.34 1002.08 1001.44 999.89 999.39 998.45 997.15 996.57 996.33 996.50 997.09 997.92 998.75 1000.14
1012.89 1012.38 1012.02 1009.43 1007.76 1007.61 1007.44 1007.11 1005.83 1004.15 1004.21 1004.08 1003.93 1004.03 1003.80 1004.30 1004.69 1004.84 1005.19 1005.19 1005.04 1004.70 1004.24 1003.59 1002.79 1002.51 1002.61 1002.64 1002.57 1002.71 1002.73 1001.79 1000.94 999.97 998.32 998.14 997.16 996.17 996.08 996.66 997.15 997.76 998.27 999.59 1000.98
1012.25 1011.92 1010.38 1008.77 1008.17 1008.07 1007.42 1006.25 1005.16 1004.53 1004.35 1005.33 1005.28 1004.69 1004.74 1004.93 1005.36 1005.64 1005.67 1005.63 1005.79 1005.63 1004.96 1004.04 1002.95 1002.69 1002.49 1002.26 1002.44 1002.30 1002.53 1002.27 1001.43 1000.56 998.99 998.47 997.34 996.76 996.61 996.87 997.74 998.46 999.26 1000.20 1001.23
1011.52 1009.64 1008.14 1008.05 1008.22 1008.02 1006.72 1005.49 1004.53 1004.86 1005.45 1005.60 1006.02 1005.87 1005.81 1006.00 1006.48 1006.09 1005.78 1005.79 1006.21 1006.58 1006.69 1005.71 1004.36 1003.52 1003.72 1003.55 1003.83 1003.52 1003.07 1003.45 1003.63 1003.03 1001.35 1000.01 998.54 997.21 996.53 996.55 997.88 999.13 999.97 1000.71 1001.70
1011.16 1008.49 1007.76 1007.89 1007.97 1007.61 1006.00 1005.14 1004.98 1005.76 1006.17 1006.26 1006.27 1006.62 1006.56 1006.92 1007.34 1007.37 1007.26 1006.75 1006.84 1007.38 1008.29 1007.91 1006.85 1005.74 1005.42 1004.88 1004.66 1004.32 1004.66 1005.38 1005.39 1003.95 1001.94 1000.33 999.05 998.01 998.54 998.31 998.75 999.91 1000.64 1001.43 1002.39
1010.82 1007.75 1007.86 1007.76 1007.69 1006.50 1004.80 1004.89 1005.58 1006.39 1006.64 1006.71 1006.81 1007.40 1007.77 1007.72 1007.78 1007.92 1008.16 1007.67 1007.95 1007.98 1008.47 1008.49 1008.18 1007.03 1006.42 1005.38 1004.78 1004.89 1005.46 1005.65 1005.81 1005.16 1003.61 1001.85 1000.29 999.35 1000.10 1000.55 1000.57 1000.88 1001.64 1002.29 1002.92
1009.65 1006.92 1007.79 1007.69 1006.95 1005.41 1004.70 1005.96 1007.03 1006.79 1007.37 1007.18 1007.30 1007.44 1008.20 1008.59 1008.42 1008.36 1008.15 1008.40 1008.96 1008.95 1008.92 1009.38 1009.75 1007.78 1006.28 1005.35 1004.89 1005.24 1005.37 1005.81 1006.51 1005.65 1004.59 1003.68 1001.97 1000.93 1001.29 1001.66 1001.96 1002.05 1002.56 1002.96 1002.80
1009.24 1007.79 1007.80 1007.53 1005.76 1005.54 1006.70 1006.79 1007.26 1007.38 1007.41 1007.57 1007.48 1008.25 1008.62 1008.71 1009.15 1008.35 1008.59 1008.91 1009.36 1009.81 1010.28 1010.30 1009.98 1008.52 1005.88 1004.55 1004.81 1005.10 1005.74 1006.12 1006.52 1006.51 1005.20 1004.56 1002.15 1002.46 1002.71 1002.94 1003.10 1003.32 1003.02 1002.68 1002.84
1009.97 1007.45 1007.45 1007.54 1007.63 1007.37 1007.28 1007.18 1007.45 1008.44 1008.31 1008.71 1008.38 1008.67 1009.05 1009.62 1009.85 1009.39 1009.40 1010.12 1010.49 1010.85 1012.00 1012.11 1010.92 1010.08 1008.47 1006.46 1007.28 1007.21 1006.83 1006.49 1006.44 1006.10 1005.00 1003.76 1002.64 1002.34 1002.58 1003.89 1003.88 1003.34 1002.84 1002.79 1002.68
1010.40 1009.49 1009.64 1007.57 1007.98 1008.49 1008.66 1008.58 1008.18 1008.36 1008.94 1009.19 1008.78 1009.42 1009.65 1009.87 1009.45 1009.63 1009.81 1010.13 1010.86 1011.36 1012.09 1012.50 1011.54 1010.68 1009.25 1008.24 1007.32 1006.37 1005.85 1005.59 1005.28 1005.08 1004.78 1003.70 1003.13 1002.60 1002.64 1002.35 1002.28 1002.44 1002.72 1002.57 1002.56
1011.06 1010.33 1009.84 1009.50 1009.78 1009.28 1009.49 1009.05 1009.16 1009.44 1009.75 1009.14 1009.75 1009.93 1010.80 1010.79 1010.54 1010.12 1010.36 1010.77 1010.80 1011.07 1011.66 1012.51 1011.75 1010.85 1009.05 1007.87 1006.89 1005.82 1004.84 1004.31 1003.78 1003.43 1003.16 1002.97 1002.19 1001.91 1001.89 1002.35 1002.91 1003.09 1002.99 1003.13 1002.72
1012.34 1011.95 1011.03 1010.14 1009.69 1009.50 1009.28 1009.99 1010.29 1010.70 1010.31 1010.60 1010.86 1011.11 1010.76 1010.88 1011.01 1010.69 1010.63 1010.58 1010.80 1011.38 1011.85 1012.39 1012.28 1011.08 1008.90 1007.51 1006.53 1004.95 1003.48 1002.79 1002.29 1002.26 1002.17 1001.78 1001.15 1001.31 1001.82 1002.23 1002.44 1002.55 1002.42 1002.29 1002.29
Wind_Speed
13 12 12 12 9 9 9 9 10 10 9 9 9 10 11 13 16 14 14 4 8 7 6 9 12 14 15 15 12 12 11 13 18 14 15 15 4 13 2 10 8 10 9 9 5
14 12 12 11 11 10 8 9 9 9 10 9 9 10 11 11 16 19 11 8 6 6 12 13 15 15 14 16 10 12 13 19 14 9 7 15 5 11 4 13 17 14 12 8 8
16 14 13 12 11 10 9 9 9 9 9 9 10 10 10 13 14 6 14 12 8 11 20 13 10 14 18 13 17 16 18 13 4 5 8 11 8 9 12 16 16 15 13 11 8
17 16 14 13 11 11 9 9 8 8 8 9 10 10 10 14 3 11 10 10 9 17 17 12 13 16 16 17 15 17 16 17 9 6 10 12 13 15 13 14 14 5 10 11 11
17 17 16 14 12 11 9 8 8 8 8 8 9 8 9 10 10 11 14 12 15 13 15 14 15 15 16 15 15 16 18 12 13 11 12 13 14 14 15 11 13 13 10 13 14
15 16 16 15 14 12 11 9 8 8 8 9 8 7 11 16 6 12 15 16 16 15 13 13 10 14 11 16 15 12 17 16 11 15 15 15 16 16 15 12 16 12 13 15 14
16 14 16 15 14 13 11 10 9 9 8 8 7 10 12 11 2 11 14 15 12 13 11 13 8 5 10 9 10 14 12 14 16 16 16 13 18 20 16 13 13 13 13 13 10
15 15 15 15 14 14 13 11 11 10 9 7 7 11 9 4 5 9 13 10 8 11 10 5 8 13 11 2 4 14 17 17 18 21 17 13 17 16 20 15 13 16 15 12 12
15 15 16 17 15 14 12 12 12 10 9 8 9 10 12 6 11 13 14 12 12 10 5 3 10 13 11 12 14 15 14 19 15 12 8 12 14 19 4 8 11 13 11 13 14
17 16 15 16 16 14 14 15 8 9 9 10 11 8 9 11 13 16 14 12 14 11 11 12 9 12 13 14 14 16 19 16 15 10 10 16 17 16 10 14 15 15 14 15 12
18 17 16 15 16 13 11 6 8 8 13 11 3 10 4 5 5 12 16 13 13 14 16 15 14 16 17 17 18 18 14 16 12 6 8 12 16 17 15 15 14 15 16 15 15
19 19 18 17 16 15 10 9 8 9 9 18 13 12 4 2 9 15 16 15 15 17 18 16 16 17 16 13 11 13 16 17 16 13 13 15 19 17 16 15 17 17 17 16 16
20 20 19 18 16 8 14 15 6 3 6 5 2 7 12 12 12 16 18 18 15 17 18 19 12 5 10 15 14 17 17 17 17 14 9 16 19 20 18 23 21 18 18 16 16
22 21 19 15 9 6 13 15 9 2 6 10 8 5 4 10 12 10 18 18 17 15 17 16 15 16 13 13 12 17 17 17 15 15 15 17 16 16 12 14 13 14 15 16 18
23 22 18 9 10 7 8 4 5 5 5 4 8 4 3 14 3 15 10 19 18 15 9 15 15 12 17 20 17 17 15 12 15 16 18 19 14 15 17 16 16 13 11 12 6
23 23 13 8 6 7 3 2 6 9 2 6 6 8 9 5 1 2 9 12 8 15 15 16 12 5 12 9 5 13 9 14 16 16 19 20 20 16 16 17 10 9 14 6 5
25 22 12 8 4 1 5 7 8 6 3 3 3 6 2 10 8 6 9 12 11 11 13 17 20 19 16 16 14 13 13 12 16 16 18 20 21 14 7 9 10 13 8 11 5
27 20 9 4 3 4 6 9 6 2 5 4 4 2 4 3 5 5 3 5 9 13 14 15 14 11 11 16 16 19 18 14 22 19 18 20 18 13 16 3 4 4 2 2 4
28 7 5 4 2 4 8 6 4 4 5 2 2 5 3 3 6 7 4 12 11 5 9 10 17 8 12 13 12 15 17 15 15 19 19 18 26 21 24 18 13 12 11 5 3
7 7 7 5 0 6 9 2 3 4 1 3 2 3 5 4 4 2 3 1 5 3 3 2 12 13 15 17 18 16 12 8 8 7 17 14 16 6 12 11 5 7 7 5 5
6 6 6 6 4 9 7 7 4 7 5 3 3 4 6 6 5 5 4 5 4 5 6 8 13 15 17 19 21 14 12 17 17 15 11 16 12 7 6 4 6 5 3 5 8
4 4 5 6 9 3 4 4 4 1 1 4 4 6 4 5 7 4 7 2 4 6 8 4 5 13 21 20 19 15 19 15 6 10 13 11 8 11 7 11 6 8 8 11 13
5 3 3 6 6 4 5 3 2 3 1 4 4 1 5 6 5 4 6 2 7 6 4 3 4 9 13 16 14 13 13 14 13 13 19 15 12 6 7 11 8 11 17 14 10
6 3 5 1 2 8 1 2 3 4 7 6 7 5 5 7 8 8 6 3 6 4 5 4 13 15 15 20 5 9 16 17 13 10 14 19 23 21 9 12 13 20 15 12 12
2 5 5 2 5 4 4 2 4 2 2 1 3 4 5 6 7 13 13 13 4 7 8 5 9 16 20 21 22 23 21 20 21 21 21 20 23 21 18 21 16 10 13 14 14
7 6 4 4 3 5 3 3 3 3 3 2 5 8 5 9 12 17 12 12 13 11 10 9 8 16 20 18 20 22 22 22 23 22 20 24 26 22 22 7 12 11 14 17 16
1 3 6 7 4 5 4 4 0 3 2 4 8 7 10 10 11 15 15 16 14 11 10 5 3 7 13 12 13 15 17 18 16 14 16 17 14 7 8 10 11 13 15 18 19
Wind_Direction
338 329 321 314 305 290 290 294 290 290 292 297 298 300 307 307 295 243 249 254 183 150 241 224 208 211 225 228 225 233 240 248 244 252 252 247 226 255 242 293 272 263 282 346 354
342 334 325 319 310 302 295 288 292 291 291 292 294 299 302 306 282 263 227 142 139 219 225 201 199 199 209 218 204 223 226 239 244 243 240 276 226 291 233 248 242 239 240 252 245
351 346 338 327 320 309 302 292 288 290 291 295 298 300 298 295 269 221 112 146 180 212 238 220 222 205 222 212 209 218 249 251 247 269 270 256 219 239 241 254 269 258 236 227 251
348 353 348 337 324 317 305 299 292 289 291 298 302 297 300 264 270 88 140 147 186 206 232 219 225 212 227 217 217 236 238 261 278 229 235 249 251 254 246 249 259 251 292 299 268
348 350 349 345 333 320 312 301 295 286 284 286 293 298 276 223 253 102 150 162 178 210 220 212 214 218 229 223 230 223 254 229 257 252 249 256 251 257 251 240 243 244 214 239 243
343 344 345 344 342 328 314 300 288 279 278 285 285 284 248 251 74 131 162 171 188 212 218 224 227 228 270 246 220 209 236 253 233 240 234 244 251 236 238 246 239 238 236 230 224
336 339 342 339 338 333 317 298 286 272 264 262 257 250 261 247 313 162 170 188 204 215 218 226 274 224 234 236 235 259 253 243 240 239 240 239 251 245 240 245 219 239 230 243 236
332 333 335 336 333 327 319 300 284 268 260 254 258 258 266 62 228 216 193 196 201 220 251 195 241 252 253 273 241 240 239 251 234 218 224 230 260 252 221 210 234 243 243 235 241
329 327 327 328 330 325 317 301 272 243 235 233 235 230 262 117 213 211 200 193 183 195 209 223 236 236 203 241 231 219 249 225 241 176 236 201 255 234 108 227 248 243 236 238 232
326 323 322 320 322 318 316 305 177 186 213 210 263 255 243 232 178 195 204 220 189 197 208 218 230 229 228 221 234 226 214 236 261 177 194 247 235 260 197 216 225 234 242 247 242
320 319 319 317 316 313 305 201 199 198 204 242 139 263 121 111 166 195 191 208 201 213 219 201 229 227 232 222 261 294 286 285 278 228 253 268 271 269 257 247 247 245 236 242 243
316 317 317 313 308 314 250 228 341 357 279 215 243 251 227 303 189 193 180 203 204 220 216 234 230 253 252 258 266 261 258 258 261 266 263 267 264 265 261 254 248 255 254 242 243
316 314 313 308 309 269 221 224 280 318 254 117 294 245 231 212 241 190 191 209 210 226 228 233 250 180 276 252 244 249 256 266 272 277 231 257 265 256 250 249 251 246 258 257 258
316 317 312 309 283 204 206 216 227 198 268 143 173 129 204 213 224 229 189 220 240 244 235 246 241 257 227 245 252 256 245 250 260 261 260 251 271 274 266 265 254 234 226 249 252
320 322 316 251 329 228 81 160 196 220 261 113 105 71 161 199 75 189 199 218 239 234 251 248 227 240 251 257 252 256 280 280 271 263 270 258 258 259 247 240 234 229 265 254 247
324 330 333 167 222 303 226 198 218 235 192 135 141 141 150 210 122 95 202 236 280 282 264 258 272 261 282 300 272 288 255 253 250 253 252 252 255 260 260 261 256 225 216 153 99
325 327 295 303 18 256 199 217 233 255 123 79 35 210 187 171 180 170 196 209 232 224 237 256 247 246 239 255 259 231 252 265 256 243 256 249 245 258 291 301 281 293 277 114 115
321 317 200 273 266 256 225 225 261 21 54 79 316 334 110 155 146 161 190 228 238 284 299 286 257 253 295 245 264 255 245 251 281 281 290 305 281 269 274 210 281 259 296 33 192
311 206 226 39 25 228 246 229 8 40 14 251 194 253 228 163 354 329 251 229 216 296 285 303 272 286 284 282 289 283 279 293 322 286 272 273 273 266 261 240 188 205 232 269 332
303 278 73 342 347 249 250 314 48 36 313 208 278 234 225 215 248 261 258 301 251 171 151 277 277 272 287 303 274 264 269 276 249 270 265 267 274 283 346 322 24 156 222 217 293
250 239 63 323 246 238 270 66 91 71 352 314 351 307 310 314 264 240 241 263 261 276 248 261 256 267 266 252 257 266 253 262 260 267 267 279 272 358 317 1 310 263 266 275 275
275 251 47 301 253 306 15 33 9 58 199 282 286 265 267 282 301 276 259 190 12 323 250 265 274 274 271 279 271 248 268 249 239 258 257 286 273 291 87 247 220 310 317 286 294
310 7 73 279 274 187 106 159 304 259 288 305 285 336 354 313 293 271 269 44 344 317 344 357 246 288 273 232 235 253 244 258 263 273 262 265 259 104 337 301 254 294 285 293 300
277 231 131 228 30 324 4 180 226 120 277 290 289 292 273 257 260 277 261 11 337 344 58 330 272 263 273 296 242 274 280 276 260 265 273 259 278 282 311 278 269 263 300 288 291
310 75 5 15 91 347 280 44 263 238 176 257 230 323 333 278 267 245 252 258 276 248 220 259 261 266 271 273 281 282 278 274 265 261 259 273 283 289 280 286 292 299 285 283 293
328 323 168 99 278 270 128 131 301 99 279 227 259 9 334 286 301 301 302 284 273 253 269 171 261 267 274 264 256 262 263 257 253 256 249 252 255 252 258 347 322 325 315 301 286
14 151 279 108 173 261 59 27 193 318 188 339 347 295 287 297 299 289 276 269 264 261 270 233 257 273 262 284 290 265 259 273 250 262 268 275 298 342 290 327 317 290 284 309 303